Location: Zagreb
(45.8150°N, 15.9819°E)
Time: 13:45:34
(UTC+02:00)

STARLINK-1745 - Pass Details

Date: 21 September 2020
Orbit: 378 x 380 km, 53.0° (Epoch: 20 October)

Event Time Altitude Azimuth Distance (km) Brightness Sun altitude
Exits shadow 04:50:58 24° 341° (NNW) 844 4.6 -19.7°
Maximum altitude 04:51:12 24° 349° (N) 838 4.6 -19.6°
Drops below altitude 10° 04:53:51 10° 46° (NE) 1,404 6.7 -19.2°
Sets 04:56:08 0° 61° (ENE) 2,259 8.4 -18.8°
